Location: Stillwell
(40.4602°N, 82.0928°W)
Time: 17:38:02
(UTC-04:00)

CARTOSAT-1 - Pass Details

Date: 25 May 2018
Orbit: 616 x 620 km, 97.8° (Epoch: 20 August)

Event Time Altitude Azimuth Distance (km) Brightness Sun altitude
Exits shadow 23:38:37 60° 234° (SW) 709 3.7 -23.6°
Maximum altitude 23:38:57 62° 259° (W) 694 3.8 -23.6°
Drops below altitude 10° 23:43:14 10° 341° (NNW) 1,987 7.2 -24.0°
Sets 23:45:28 0° 344° (NNW) 2,898 8.4 -24.2°
